Weather in Glybokaya

Ukraine / Chernovtci District     48°05′23″N   25°55′41″E
В апреле 2022 года жителям России запретили посещать сайт meteo.paraplan.net по решению Генеральной прокуратуры. Аудитория сайта уменьшилась в 10 раз. Владельцы сайта не видят смысла в поддержке погодного сервера в таких условиях. Сайт будет закрыт в октябре.
temp.,
°C
wind,
m/s
gust,
m/s
humid.,
%
clouds,
%
prec.,
mm/h
press.,
hPa
HPBL,
m
25 september, sun
sun2500:00+7sw2175100 0.0 102010
03:00+6sw1181100 0.0 102010
06:00+6ssw228341 0.0 101915
09:00+9s226849 0.0 1018133
12:00+16s234821 0.0 1017903
15:00+18se334398 0.0 10151288
18:00+16se2257100 0.0 101441
21:00+13sw1164100 0.0 101511
26 september, mon
mon2600:00+12sw1170100 0.0 101411
03:00+10ssw1176100 0.0 101310
06:00+9ssw228119 0.0 101211
09:00+12s236630 0.0 1011107
12:00+20ssw454274 0.0 10091248
15:00+20n2349100 0.0 1008421
18:00+15n2370100 0.0 100999
21:00+13nne2273100 0.0 100832
27 september, tue
tue2700:00+12e1182100 0.6 100721
03:00+11sse1195100 4.4 100557
06:00+11se1198100 4.9 100370
09:00+12ese2398100 7.5 1001146
12:00+13nnw1294100 0.0 1001238
15:00+13nw4788100 0.1 1001455
18:00+12wsw128998 0.6 100181
21:00+10wnw119096 0.6 100210
28 september, wed
wed2800:00+9wsw118915 0.0 100210
03:00+10ssw118719 0.0 100211
06:00+9sw118699 0.0 100310
09:00+11sw0184100 0.3 100340
12:00+14nnw227799 0.1 1004384
15:00+16nne21706 0.1 1004536
18:00+15e34760 0.3 1004134
21:00+11s22895 0.3 100622
29 september, thu
thu2900:00+10s33886 0.0 100730
03:00+10s228465 0.0 100719
06:00+10s2279100 0.0 100616
09:00+12sse2574100 0.0 1006127
12:00+19sse455394 0.0 1006551
15:00+17sse2262100 0.0 100624
18:00+18ssw4863100 0.0 1006237
21:00+15ssw3578100 0.1 100880